Location: Drocourt
(49.0571°N, 1.7669°E)
Time: 00:33:05
(UTC+00:00)

COSMO-SKYMED 1 - Pass Details

Date: 09 February 2023
Orbit: 621 x 623 km, 97.9° (Epoch: 21 March)

Event Time Altitude Azimuth Distance (km) Brightness Sun altitude
Rises 18:54:20 0° 6° (N) 2,919 6.0 -18.6°
Reaches altitude 10° 18:56:41 10° 357° (N) 2,007 5.2 -19.0°
Maximum altitude 19:00:36 34° 293° (WNW) 1,041 4.3 -19.7°
Drops below altitude 10° 19:04:30 10° 229° (SW) 1,992 5.8 -20.3°
Sets 19:06:50 0° 220° (SW) 2,893 6.6 -20.7°
